User: anonymous   Login
Location: Chenango Forks
(42.2242°N, 75.8278°W)
Time: 15:07:20
(UTC-04:00)
Language:

Okean 3 Rocket - Orbit

View from above orbital plane
View from above orbital plane
View from above satellite
View from above satellite

Ground track
Ground track

The orbit data is extracted from the following two-line orbital elements,

1 21398U 91039B   17141.91238341 +.00000073 +00000-0 +67141-5 0  9994
2 21398 082.5240 250.6382 0019908 268.7394 221.9355 14.79662653378989
Epoch (UTC): 21 May 2017 21:53:49
Eccentricity: 0.0019908
inclination: 82.5240°
perigee height: 616 km
apogee height: 644 km
right ascension of ascending node: 250.6382°
argument of perigee: 268.7394°
revolutions per day: 14.79662653
mean anomaly at epoch: 221.9355°
orbit number at epoch: 37898

The dashed part of the orbit path shows where the satellite is in the earth's shadow,  

DLR